Simultaneous Nadir Overpasses (SNOs) Predictions

Prediction of SNOs between LANDSAT-8 and METOP-A Satellite Orbit:

Table of predicted SNOs for the next 14.0 days since TLE Epoch: 1/15/2016
Index Date (LANDSAT-8) Time (LANDSAT-8) Lat,Lon (LANDSAT-8) SZA (LANDSAT-8 ) Date (METOP-A) Time (METOP-A) Lat,Lon (METOP-A) SZA (METOP-A ) Distance(km) Time Diff (sec)
1 01/17/2016 10:30:45 81.10, 61.81 103.58 01/17/2016 10:30:00 81.11, 61.85 103.57 0.82 45
2 01/17/2016 11:20:11 -81.12,-130.25 76.39 01/17/2016 11:20:39 -81.13,-130.22 76.37 0.69 28
3 01/20/2016 06:04:59 81.11, 128.34 103.00 01/20/2016 06:04:22 81.11, 128.23 102.98 1.88 37
4 01/20/2016 06:54:25 -81.13, -63.70 76.96 01/20/2016 06:55:01 -81.13, -63.83 76.97 2.41 36
5 01/23/2016 01:39:14 81.11,-165.20 102.36 01/23/2016 01:38:44 81.12,-165.04 102.37 2.86 30
6 01/23/2016 02:28:40 -81.13, 2.79 77.60 01/23/2016 02:29:23 -81.14, 2.90 77.57 1.99 43
7 01/25/2016 21:13:29 81.11, -98.82 101.67 01/25/2016 21:13:07 81.11, -98.72 101.68 1.76 22
8 01/25/2016 22:02:55 -81.13, 69.20 78.29 01/25/2016 22:03:46 -81.13, 69.23 78.26 0.63 51
9 01/28/2016 16:47:42 81.12, -32.14 100.98 01/28/2016 16:47:28 81.12, -32.06 100.98 1.42 14




NCC Satellite Simultaneous Nadir Overpasses (SNOs) Prediction Service
